Regional Weather Roundup
Issued by NWS

Home | Current Version | Previous Version | Graphics & Text | Print | Product List | Glossary On
Versions: 1 2 3 4 5 6 7 8 9 10 11 12 13 14 15 16 17 18 19 20 21 22 23 24 25 26 27 28 29 30 31 32 33 34 35 36 37 38 39 40 41 42 43 44 45 46 47 48 49 50
000
ASUS45 KTFX 181310
RWRMT
MONTANA REGIONAL WEATHER ROUNDUP
NATIONAL WEATHER SERVICE GREAT FALLS MT
600 AM MST WED JAN 18 2017

NOTE: "FAIR" INDICATES FEW OR NO CLOUDS BELOW 12000 FEET WITH NO
SIGNIFICANT WEATHER AND/OR OBSTRUCTIONS TO VISIBILITY.

MTZ001>007-043-181400-
WEST OF THE DIVIDE

CITY           SKY/WX    TMP DP  RH WIND       PRES   REMARKS
KALISPELL      CLOUDY    23  20  88 CALM      29.75F
MISSOULA       CLOUDY    18  14  84 S5        29.82F
BUTTE          CLOUDY    13   8  81 E8        29.82S WCI   2
MULLAN PASS    LGT SNOW  27  26  96 VRB7      29.68F VSB 3/4 WCI  19
ANACONDA         N/A     30  16  55 S28G33    29.76R WCI  16
DEER LODGE       N/A     37  21  52 S13G18    29.78R WCI  29
EUREKA           N/A     27  25  93 CALM      29.71F
HAMILTON         N/A     18  10  73 NW3       29.79R
PLAINS           N/A     20  12  71 CALM      29.79F
RONAN            N/A     18  14  84 MISG      29.80F
THOMPSON FALLS   N/A     23  19  85 E5        29.83F
$$

MTZ008-052>055-181400-
SOUTHWEST MONTANA

CITY           SKY/WX    TMP DP  RH WIND       PRES   REMARKS
BOZEMAN        CLOUDY    11   7  84 VRB5      29.84F
DILLON         CLOUDY    27  10  49 S10       29.87F WCI  17
W YELLOWSTONE  HAZE     -13 -18  77 CALM      30.07F VSB 3/4
ENNIS          CLEAR     27  14  59 S29G35    29.92F WCI  11
TWIN BRIDGES     N/A     19   6  57 E10       29.88F WCI   7
$$

MTZ009-010-012-014-046-048-049-054-181400-
EAST SLOPES AND CENTRAL MONTANA

CITY           SKY/WX    TMP DP  RH WIND       PRES   REMARKS
CUT BANK       PTCLDY    39  30  70 W16       29.54F WCI  30
GREAT FALLS    CLOUDY    41  25  53 S21       29.60F
MALMSTROM AFB  CLOUDY    42  26  53 SW18G29   29.61F
HELENA         CLOUDY    15   9  76 S6        29.77F WCI   6
AUGUSTA          N/A     37  23  57 S13       29.59R WCI  28
BOWMANS CRNR     N/A     34  22  63 S36G44    29.58F WCI  19
CHOTEAU          N/A     41  25  52 S7G14     29.59R
CONRAD           N/A     38  30  73 S12       29.61F WCI  30
POWER            N/A     39  25  58 SW28      29.56F WCI  27
RAYNESFORD     MOCLDY    52  23  32 SW14G20   29.61F
ULM            MOCLDY    40  26  58 MISG      29.62F
$$

MTZ011-013-016-021-045-047-050-051-181400-
NORTH CENTRAL MONTANA

CITY           SKY/WX    TMP DP  RH WIND       PRES   REMARKS
HAVRE          CLOUDY    37  30  75 SW15      29.52F WCI  28
LEWISTOWN      CLOUDY    44  27  51 SW23      29.66R
N BAR RANCH      N/A     34  25  69 VRB7      29.69S WCI  28
CHINOOK          N/A     30  27  86 NE3       29.53F
DENTON           N/A     38  27  64 SW10      29.59F WCI  31
FORT BENTON      N/A     48  27  43 MISG      29.59R
GEYSER           N/A     42  28  55 SW13      29.61S
GRASS RANGE      N/A     54  25  32 W15G28    29.61S
JUDITH GAP       N/A     44  20  38 W9G18     29.71F
ROY              N/A     54  28  36 MISG      29.60F
STANFORD         N/A     41  27  57 SW14      29.64F
WINIFRED         N/A     46  28  49 SW14      29.61R
$$

MTZ017>020-022>027-061-062-181400-
NORTHEAST MONTANA

CITY           SKY/WX    TMP DP  RH WIND       PRES   REMARKS
GLASGOW        CLOUDY    24  20  84 SE15      29.58F WCI  11
JORDAN           N/A     41  25  53 SW12G23   29.63F
SIDNEY         CLOUDY    29  22  75 S10       29.70R WCI  20
WOLF POINT     CLOUDY    14  10  84 E5        29.64F
PLENTYWOOD       N/A     25  21  86 E8        29.62F WCI  16
POPLAR           N/A     28  21  74 CALM      29.65F
SCOBEY           N/A     31  22  69 S2        29.60F
$$

MTZ028>42-056>058-181400-
SOUTHCENTRAL AND SOUTHEAST MONTANA

CITY           SKY/WX    TMP DP  RH WIND       PRES   REMARKS
BAKER          CLOUDY    41  23  48 SW16G23   29.73F
BILLINGS       CLOUDY    36  18  48 SW25G31   29.73S WCI  24
LIVINGSTON     CLOUDY    42  11  28 SW29G53   29.76R
MILES CITY     CLOUDY    18  12  77 S3        29.74S
BIG TIMBER     CLEAR     39  14  35 W22       29.79R WCI  29
FORSYTH          N/A     21  16  79 CALM      29.74R
HARLOWTON        N/A     31  20  62 W8        29.73S WCI  23
LAUREL           N/A     35  19  52 SW21      29.74F WCI  24
$$

REGIONAL REPORTS...DAKOTAS

CITY           SKY/WX    TMP DP  RH WIND       PRES   REMARKS
WILLISTON      CLOUDY    26  22  84 CALM      29.68S
MINOT          CLOUDY    35  27  72 SW16      29.66R WCI  25
DICKINSON      CLOUDY    32  22  66 W16       29.69F WCI  21
BEACH            N/A     36  23  60 SW14      29.73S WCI  27
CROSBY           N/A     28  25  86 S20       29.64S WCI  15
TIOGA            N/A     30  27  86 SW17      29.67R WCI  18
WATFORD CITY     N/A     32  23  69 SW6       29.70R WCI  26
BISMARCK       CLEAR     18  12  77 E5        29.76R
GRAND FORKS    CLOUDY    24  17  74 S15       29.69S WCI  11
FARGO          CLOUDY    22  17  81 S10       29.76F WCI  11
BUFFALO SD       N/A     36  22  56 W21       29.69F WCI  25
RAPID CITY     CLOUDY    27  18  69 CALM      29.79F
$$

REGIONAL REPORTS...WYOMING/IDAHO/WASHINGTON

CITY           SKY/WX    TMP DP  RH WIND       PRES   REMARKS
GILLETTE       CLOUDY    33  17  51 S9        29.81S WCI  25
SHERIDAN       CLOUDY    12   8  84 S10       29.78R WCI  -1
BUFFALO WY     CLOUDY    38  17  42 S9        29.78F WCI  31
CODY           CLOUDY    13   6  74 NE9       29.86R WCI   1
YELLOWSTONE LA   N/A     -9 -12  87 CALM      30.05F
IDAHO FALLS    CLOUDY    -4  -7  87 N6        30.12S WCI -16
SALMON         CLOUDY    -4  -8  84 N3        30.08S
BOISE          CLOUDY    12   6  77 E7        30.08S HAZE    WCI   1
SPOKANE        CLOUDY    34  32  92 SE10      29.67F WCI  26
$$

REGIONAL REPORTS...ALBERTA

CITY           SKY/WX    TMP DP  RH WIND       PRES   REMARKS
EDMONTON       CLEAR     32  23  69 CALM      29.15F
CALGARY        PTCLDY    28  23  80 N6        29.28S WCI  22
LETHBRIDGE     PTCLDY    37  30  75 SW12      29.45F WCI  30
MEDICINE HAT   CLOUDY    43  30  61 S20G26    29.42R
WATERTON GATE    N/A     39  28  65 SW38G53     N/A  WCI  26
CARDSTON         N/A     41  30  65 S10         N/A
MILK RIVER       N/A     41  32  70 SW23G30     N/A
$$

REGIONAL REPORTS...SASKATCHEWAN

CITY           SKY/WX    TMP DP  RH WIND       PRES   REMARKS
SWIFT CURRENT  CLEAR     37  30  75 S20G25    29.41F WCI  27
REGINA         MOCLDY    34  27  75 S9        29.52S WCI  26
SASKATOON      MOCLDY    37  32  81 S12       29.38F WCI  30
CYPRESS HILLS    N/A     36  25  64 SW17G25     N/A  WCI  25
VAL MARIE        N/A     23  21  93 S10         N/A  WCI  12
ROCKGLEN         N/A     36  28  75 SW13        N/A  WCI  27
ASSINIBOIA       N/A     34  28  80 SE9         N/A  WCI  26
$$



USA.gov is the U.S. government's official web portal to all federal, state and local government web resources and services.